When you browse on this site, cookies collect data to enhance your experience and personalize the content and advertising you see.
Visit our Privacy Policy to learn more. By continuing to use the site, you agree to this use of cookies and data.
  • In Belgium
  • List of Countries
  • For 7 days
  • Water Temperature
  • Weather Map
  • Weather Widgets
  • user-avatar
    Login

    Hourly Weather Udong

    Today, 21 February, Friday

    Time Temperature Precipitation Wind Pressure Humidity
    00:00 +26°C° 0 mm 3 mps 759 mmHg 53%
    01:00 +25°C° 0 mm 2 mps 760 mmHg 59%
    02:00 +25°C° 0 mm 2 mps 759 mmHg 62%
    03:00 +24°C° 0 mm 2 mps 759 mmHg 65%
    04:00 +23°C° 0 mm 2 mps 759 mmHg 68%
    05:00 +23°C° 0 mm 2 mps 760 mmHg 69%
    06:00 +23°C° 0 mm 2 mps 760 mmHg 70%
    07:00 +22°C° 0 mm 3 mps 761 mmHg 73%
    08:00 +26°C° 0 mm 3 mps 761 mmHg 64%
    09:00 +29°C° 0 mm 4 mps 761 mmHg 54%
    10:00 +32°C° 0 mm 5 mps 762 mmHg 45%
    11:00 +34°C° 0 mm 4 mps 761 mmHg 41%
    12:00 +36°C° 0 mm 4 mps 760 mmHg 36%
    13:00 +37°C° 0 mm 4 mps 759 mmHg 32%
    20:00 +33°C° 0 mm 4 mps 759 mmHg 38%
    21:00 +32°C° 0 mm 5 mps 760 mmHg 42%
    22:00 +30°C° 0 mm 6 mps 760 mmHg 45%
    23:00 +29°C° 0 mm 5 mps 760 mmHg 49%

    Tomorrow, 22 February, Saturday

    Time Temperature Precipitation Wind Pressure Humidity
    00:00 +28°C° 0 mm 4 mps 760 mmHg 53%
    01:00 +27°C° 0 mm 3 mps 760 mmHg 57%
    02:00 +26°C° 0 mm 3 mps 760 mmHg 59%
    03:00 +25°C° 0 mm 3 mps 760 mmHg 61%
    04:00 +24°C° 0 mm 2 mps 760 mmHg 63%
    05:00 +24°C° 0 mm 2 mps 760 mmHg 64%
    06:00 +24°C° 0 mm 3 mps 761 mmHg 64%
    07:00 +24°C° 0 mm 3 mps 762 mmHg 65%
    08:00 +26°C° 0 mm 4 mps 762 mmHg 57%
    09:00 +28°C° 0 mm 4 mps 762 mmHg 50%
    10:00 +32°C° 0 mm 5 mps 762 mmHg 42%
    11:00 +34°C° 0 mm 5 mps 761 mmHg 36%
    12:00 +36°C° 0 mm 5 mps 760 mmHg 29%
    13:00 +39°C° 0 mm 5 mps 759 mmHg 23%
    14:00 +39°C° 0 mm 5 mps 758 mmHg 22%
    15:00 +39°C° 0 mm 5 mps 757 mmHg 22%
    16:00 +40°C° 0 mm 4 mps 756 mmHg 21%
    17:00 +37°C° 0 mm 4 mps 756 mmHg 24%
    18:00 +35°C° 0 mm 3 mps 757 mmHg 27%
    19:00 +33°C° 0 mm 3 mps 757 mmHg 30%
    20:00 +31°C° 0 mm 3 mps 758 mmHg 33%
    21:00 +30°C° 0 mm 4 mps 759 mmHg 37%
    22:00 +29°C° 0 mm 5 mps 760 mmHg 40%
    23:00 +28°C° 0 mm 4 mps 760 mmHg 45%

    Day after tomorrow, 23 February, Sunday

    Time Temperature Precipitation Wind Pressure Humidity
    00:00 +27°C° 0 mm 4 mps 760 mmHg 49%
    01:00 +26°C° 0 mm 4 mps 760 mmHg 53%
    02:00 +25°C° 0 mm 3 mps 759 mmHg 57%
    03:00 +24°C° 0 mm 3 mps 759 mmHg 60%
    04:00 +22°C° 0 mm 3 mps 759 mmHg 64%
    05:00 +22°C° 0 mm 3 mps 759 mmHg 65%
    06:00 +22°C° 0 mm 3 mps 760 mmHg 65%
    07:00 +22°C° 0 mm 3 mps 760 mmHg 66%
    08:00 +26°C° 0 mm 4 mps 761 mmHg 57%
    09:00 +28°C° 0 mm 4 mps 761 mmHg 47%
    10:00 +32°C° 0 mm 5 mps 761 mmHg 37%
    11:00 +33°C° 0 mm 5 mps 760 mmHg 34%
    12:00 +35°C° 0 mm 4 mps 759 mmHg 30%
    13:00 +37°C° 0 mm 4 mps 757 mmHg 27%
    14:00 +37°C° 0 mm 3 mps 757 mmHg 25%
    15:00 +38°C° 0 mm 3 mps 756 mmHg 24%
    16:00 +38°C° 0 mm 3 mps 755 mmHg 23%
    17:00 +36°C° 0 mm 2 mps 755 mmHg 26%
    18:00 +34°C° 0 mm 2 mps 756 mmHg 29%
    19:00 +31°C° 0 mm 1 mps 756 mmHg 32%
    20:00 +30°C° 0 mm 2 mps 756 mmHg 34%
    21:00 +29°C° 0 mm 2 mps 757 mmHg 35%
    22:00 +28°C° 0 mm 2 mps 758 mmHg 37%
    23:00 +27°C° 0 mm 2 mps 758 mmHg 43%

    24 February, Monday

    Time Temperature Precipitation Wind Pressure Humidity
    00:00 +26°C° 0 mm 2 mps 758 mmHg 50%
    01:00 +25°C° 0 mm 2 mps 758 mmHg 56%
    02:00 +24°C° 0 mm 2 mps 758 mmHg 59%
    03:00 +24°C° 0 mm 1 mps 758 mmHg 62%
    04:00 +23°C° 0 mm 1 mps 757 mmHg 65%
    05:00 +23°C° 0 mm 2 mps 758 mmHg 65%
    06:00 +21°C° 0 mm 2 mps 758 mmHg 65%
    07:00 +21°C° 0 mm 3 mps 759 mmHg 65%
    08:00 +24°C° 0 mm 3 mps 759 mmHg 58%
    09:00 +27°C° 0 mm 3 mps 759 mmHg 50%
    10:00 +29°C° 0 mm 3 mps 759 mmHg 43%
    11:00 +31°C° 0 mm 3 mps 758 mmHg 37%
    12:00 +35°C° 0 mm 3 mps 757 mmHg 31%
    13:00 +37°C° 0 mm 3 mps 756 mmHg 25%
    14:00 +37°C° 0 mm 3 mps 755 mmHg 23%
    15:00 +38°C° 0 mm 2 mps 755 mmHg 22%
    16:00 +38°C° 0 mm 2 mps 754 mmHg 20%
    17:00 +36°C° 0 mm 2 mps 754 mmHg 24%
    18:00 +34°C° 0 mm 2 mps 755 mmHg 27%
    19:00 +31°C° 0 mm 2 mps 755 mmHg 30%
    20:00 +30°C° 0 mm 1 mps 756 mmHg 32%
    21:00 +29°C° 0 mm 1 mps 756 mmHg 34%
    22:00 +28°C° 0 mm 1 mps 757 mmHg 36%
    23:00 +27°C° 0 mm 1 mps 757 mmHg 46%

    25 February, Tuesday

    Time Temperature Precipitation Wind Pressure Humidity
    00:00 +26°C° 0 mm 2 mps 757 mmHg 55%
    01:00 +25°C° 0 mm 3 mps 757 mmHg 65%
    02:00 +25°C° 0 mm 3 mps 757 mmHg 69%
    03:00 +24°C° 0 mm 3 mps 757 mmHg 74%
    04:00 +24°C° 0 mm 3 mps 756 mmHg 78%
    05:00 +24°C° 0 mm 2 mps 757 mmHg 78%
    06:00 +24°C° 0 mm 2 mps 757 mmHg 78%
    07:00 +25°C° 0 mm 2 mps 758 mmHg 78%
    08:00 +27°C° 0 mm 2 mps 758 mmHg 69%
    09:00 +29°C° 0 mm 2 mps 758 mmHg 59%
    10:00 +31°C° 0 mm 2 mps 758 mmHg 50%
    11:00 +34°C° 0 mm 2 mps 757 mmHg 44%
    12:00 +36°C° 0 mm 2 mps 756 mmHg 38%
    13:00 +37°C° 0 mm 2 mps 755 mmHg 32%
    14:00 +38°C° 0 mm 2 mps 754 mmHg 31%
    15:00 +38°C° 0 mm 2 mps 754 mmHg 29%
    16:00 +38°C° 0 mm 2 mps 753 mmHg 27%
    17:00 +37°C° 0 mm 2 mps 753 mmHg 30%
    18:00 +35°C° 0 mm 2 mps 754 mmHg 33%
    19:00 +32°C° 0 mm 1 mps 754 mmHg 36%
    20:00 +31°C° 0 mm 2 mps 755 mmHg 40%
    21:00 +30°C° 0 mm 2 mps 755 mmHg 44%
    22:00 +30°C° 0 mm 3 mps 756 mmHg 47%
    23:00 +29°C° 0 mm 4 mps 756 mmHg 55%

    26 February, Wednesday

    Time Temperature Precipitation Wind Pressure Humidity
    00:00 +28°C° 0 mm 5 mps 756 mmHg 63%
    01:00 +27°C° 0 mm 5 mps 756 mmHg 72%
    02:00 +27°C° 0 mm 5 mps 756 mmHg 74%
    03:00 +27°C° 0 mm 4 mps 756 mmHg 75%
    04:00 +26°C° 0 mm 4 mps 756 mmHg 77%
    05:00 +26°C° 0 mm 3 mps 756 mmHg 78%
    06:00 +26°C° 0 mm 2 mps 757 mmHg 79%
    07:00 +26°C° 0 mm 2 mps 757 mmHg 80%
    08:00 +28°C° 0 mm 2 mps 757 mmHg 71%
    09:00 +30°C° 0 mm 2 mps 758 mmHg 61%
    10:00 +32°C° 0 mm 2 mps 758 mmHg 52%
    11:00 +35°C° 0 mm 2 mps 757 mmHg 46%
    12:00 +36°C° 0 mm 2 mps 756 mmHg 41%
    13:00 +37°C° 0 mm 1 mps 755 mmHg 35%
    14:00 +37°C° 0 mm 1 mps 754 mmHg 34%
    15:00 +38°C° 0 mm 2 mps 754 mmHg 32%
    16:00 +38°C° 0 mm 2 mps 753 mmHg 30%
    17:00 +36°C° 0 mm 1 mps 754 mmHg 33%
    18:00 +34°C° 0 mm 1 mps 754 mmHg 36%
    19:00 +33°C° 0 mm 1 mps 754 mmHg 39%
    20:00 +32°C° 0 mm 1 mps 755 mmHg 41%
    21:00 +31°C° 0 mm 2 mps 755 mmHg 43%
    22:00 +31°C° 0 mm 2 mps 756 mmHg 45%
    23:00 +30°C° 0 mm 3 mps 756 mmHg 52%
    Show more